Location: Newark
(47.5833°N, 8.1500°E)
Time: 14:20:03
(UTC+00:00)

Tiros 1 - Pass Details

Date: 01 November 2020
Orbit: 630 x 664 km, 48.4° (Epoch: 29 November)

Event Time Altitude Azimuth Distance (km) Brightness Sun altitude
Exits shadow 04:14:10 50° 282° (WNW) 804 7.2 -20.2°
Maximum altitude 04:15:19 80° 358° (N) 645 7.0 -20.0°
Drops below altitude 10° 04:19:57 10° 87° (E) 2,008 10.9 -19.3°
Sets 04:22:16 0° 89° (E) 2,917 12.2 -18.9°
